This is the latest recevied weather packets stored in our database for station/object KD9DOE. If no packets are shown the sender has not sent any weather packets the latest 10 day(s).
| Time | Temp. | Humidity | Pressure | Rain* | Wind** | Luminosity | Snow |
|---|---|---|---|---|---|---|---|
| 1777395869 | 15.56° C | 52% | 1012.7 hPa | 0 mm | - | 740 W/m² | - |
| 1777395565 | 15.56° C | 51% | 1012.7 hPa | 0 mm | - | 733 W/m² | - |
| 1777395261 | 15° C | 53% | 1012.4 hPa | 0 mm | - | 727 W/m² | - |
| 1777394959 | 15° C | 52% | 1012.7 hPa | 0 mm | - | 718 W/m² | - |
| 1777394655 | 15° C | 52% | 1012.5 hPa | 0 mm | - | 714 W/m² | - |
| 1777394351 | 15° C | 53% | 1012.5 hPa | 0 mm | - | 706 W/m² | - |
| 1777394048 | 14.44° C | 54% | 1012.8 hPa | 0 mm | - | 697 W/m² | - |
| 1777393743 | 14.44° C | 55% | 1012.6 hPa | 0 mm | - | 690 W/m² | - |
| 1777393437 | 14.44° C | 58% | 1012.6 hPa | 0 mm | - | 685 W/m² | - |
| 1777393134 | 14.44° C | 54% | 1012.6 hPa | 0 mm | - | 674 W/m² | - |
| 1777392830 | 14.44° C | 55% | 1012.7 hPa | 0 mm | - | 668 W/m² | - |
| 1777392526 | 13.89° C | 55% | 1012.8 hPa | 0 mm | - | 665 W/m² | - |
| 1777392222 | 13.89° C | 56% | 1012.8 hPa | 0 mm | - | 654 W/m² | - |
| 1777391917 | 13.89° C | 56% | 1012.4 hPa | 0 mm | - | 650 W/m² | - |
| 1777391612 | 13.33° C | 58% | 1012.8 hPa | 0 mm | - | 288 W/m² | - |
| 1777391309 | 13.33° C | 57% | 1012.6 hPa | 0 mm | - | 629 W/m² | - |
| 1777391006 | 12.78° C | 57% | 1012.6 hPa | 0 mm | - | 618 W/m² | - |
| 1777390701 | 12.78° C | 61% | 1012.4 hPa | 0 mm | - | 613 W/m² | - |
| 1777390398 | 13.33° C | 58% | 1012.4 hPa | 0 mm | - | 611 W/m² | - |
| 1777390094 | 12.22° C | 61% | 1012.6 hPa | 0 mm | - | 596 W/m² | - |
| 1777389791 | 12.22° C | 62% | 1012.4 hPa | 0 mm | - | 586 W/m² | - |
| 1777389489 | 12.22° C | 60% | 1012.3 hPa | 0 mm | - | 585 W/m² | - |
| 1777389185 | 12.22° C | 62% | 1012.4 hPa | 0 mm | - | 575 W/m² | - |
| 1777388883 | 12.22° C | 63% | 1012.5 hPa | 0 mm | - | 572 W/m² | - |
| 1777388579 | 12.22° C | 62% | 1012.5 hPa | 0 mm | - | 583 W/m² | - |
* Rain latest hour (hover to see other rain measurements)
** Current wind speed in m/s (hover to see current wind gust speed)